Retour au catalogue

SURFSAT

ActifScienceSSO
NORAD 23711·PAYLOAD·🇺🇸 United States

Lancé Nov 4, 1995 depuis Vandenberg Space Force Base

Loading…

Prochains Passages (prochaines 24 heures)

TLE

FraisSource: Space-Track

Époque: Sep 14, 2026, 08:29 UTC

1 23711U 95059B   26257.35359947 -.00000046  00000-0  25312-5 0  9998
2 23711 100.4905 285.3380 0367015 253.6941 114.0359 13.12859141478610

Suivez SURFSAT en temps réel avec AllMySat

Download on the App Store